1332633634046,53.0147
1332633694046,52.9709
1332633754046,52.9287
1332633814046,53.0067
1332633874046,52.9787
1332633934046,53.1168
1332633994046,52.9559
1332634054046,53.0633
1332634114046,53.0795
1332634174046,52.9852
1332634234046,53.0417
1332634294046,52.9551
1332634354046,52.8449
1332634414046,53.1426
1332634474046,53.0748
1332634534046,52.8429
1332634594046,53.0447
1332634654046,52.8858
1332634714046,52.9693
1332634774046,53.0874
1332634834046,53.0826
1332634894046,53.1649
1332634954046,53.2790
1332635014046,53.2679
1332635074046,53.1716
1332635134046,53.1569
1332635194046,53.1719
1332635254046,53.4672
1332635314046,53.2407
1332635374046,53.2599
1332635434046,53.3520
1332635494046,53.2220
1332635554046,53.2442
1332635614046,53.2368
1332635674046,53.3583
1332635734046,53.4233
1332635794046,53.2666
1332635854046,53.6043
1332635914046,53.2389
1332635974046,53.2783
1332636034046,53.3789
1332636094046,53.2557
1332636154046,53.0886
1332636214046,53.1819
1332636274046,53.2472
1332636334046,53.1899
1332636394046,53.1933
1332636454046,53.1798
1332636514046,52.9358
1332636574046,53.0082
1332636634046,52.9460
1332636694046,52.9303
1332636754046,52.7598
1332636814046,52.9194
1332636874046,52.8287
1332636934046,53.0161
1332636994046,52.7450
1332637054046,52.7920
1332637114046,52.6078
1332637174046,52.7744
1332637234059,52.7203
1332637294059,52.7225
1332637354059,52.8956
1332637414059,52.7500
1332637474059,52.7782
1332637534059,52.7679
1332637594059,52.7442
1332637654059,52.7608
1332637714059,52.7358
1332637774059,52.7461
1332637834059,52.7079
1332637894059,52.7547
1332637954059,52.6899
1332638014059,52.7391
1332638074059,52.7734
1332638134059,52.8076
1332638194059,52.7168
1332638254059,52.6514
1332638314059,52.6487
1332638374059,52.8483
1332638434059,52.6093
1332638494059,52.7439
1332638554059,52.7237
1332638614059,52.6676
1332638674059,52.8142
1332638734059,52.7866
1332638794059,52.6989
1332638854059,52.7684
1332638914059,52.6904
1332638974059,52.7114
1332639034059,52.6807
1332639094059,52.6814
1332639154059,52.6581
1332639214059,52.7021
1332639274059,52.5713
1332639334059,52.6215
1332639394059,52.8299
1332639454059,52.7583
1332639514059,52.7495
1332639574059,52.7074
1332639634059,52.8133
1332639694059,52.7954
1332639754059,52.7938
1332639814059,52.7784
1332639874059,52.7960
1332639934059,52.7911
1332639994059,52.6944
1332640054059,52.7867
1332640114059,52.7136
1332640174059,52.7978
1332640234059,52.7668
1332640294059,52.6150
1332640354059,52.6034
1332640414059,52.6409
1332640474059,52.7757
1332640534059,52.7432
1332640594059,52.6264
1332640654059,52.5067
1332640714059,52.7220
1332640774059,52.5915
1332640834072,52.4907
1332640894072,52.3375
1332640954072,52.5553
1332641014071,52.5167
1332641074072,52.4842
1332641134072,52.4769
1332641194072,52.6380
1332641254072,52.5068
1332641314072,52.5698
1332641374072,52.4871
1332641434072,52.5733
1332641494072,52.6435
1332641554072,52.5395
1332641614072,52.7433
1332641674071,52.8269
1332641734071,52.8498
1332641794071,52.8388
1332641854071,52.7921
1332641914071,52.7370
1332641974071,52.8665
1332642034071,52.6981
1332642094072,52.6645
1332642154072,52.8040
1332642214072,52.8351
1332642274072,52.8834
1332642334071,52.8523
1332642394071,52.8439
1332642454072,52.8116
1332642514072,52.8497
1332642574072,52.7713
1332642634072,52.8003
1332642694072,52.8216
1332642754072,52.7593
1332642814072,52.8602
1332642874072,52.8328
1332642934072,52.8166
1332642994071,52.8347
1332643054071,52.8299
1332643114071,52.7475
1332643174071,52.7983
1332643234071,52.7302
1332643294071,52.7027
1332643354071,52.7932
1332643414071,52.7314
1332643474072,52.7680
1332643534072,52.9576
1332643594072,52.6473
1332643654072,52.6252
1332643714071,52.8067
1332643774072,53.0350
1332643834072,52.6222
1332643894072,52.7500
1332643954072,52.7736
1332644014072,52.8649
1332644074072,52.5831
1332644134072,52.7303
1332644194072,52.6308
1332644254072,52.5365
1332644314072,52.6900
1332644374071,52.6189
1332644434084,52.5201
1332644494084,52.3633
1332644554084,52.6300
1332644614084,52.4519
1332644674084,52.5158
1332644734084,52.4868
1332644794084,52.5372
1332644854084,52.4087
1332644914084,52.6011
1332644974084,52.4150
1332645034084,52.4664
1332645094084,52.5811
1332645154084,52.2652
1332645214084,52.3083
1332645274084,52.4389
1332645334084,52.4184
1332645394084,52.6080
1332645454084,52.3034
1332645514084,52.2871
1332645574084,52.5024
1332645634084,52.4262
1332645694084,52.3335
1332645754084,52.1439
1332645814084,52.3532
1332645874084,52.3088
1332645934084,52.2643
1332645994084,52.3581
1332646054084,52.3584
1332646114084,52.2907
1332646174084,52.1437
1332646234084,52.0797
1332646294084,52.1613
1332646354084,52.1607
1332646414084,52.1897
1332646474084,52.1926
1332646534084,52.0794
1332646594084,52.2139
1332646654084,52.0551
1332646714084,52.2889
1332646774084,52.1411
1332646834084,52.1051
1332646894084,52.1911
1332646954084,52.0358
1332647014084,52.0386
1332647074084,52.1611
1332647134084,52.0133
1332647194084,52.0522
1332647254084,52.1286
1332647314084,51.8659
1332647374084,52.1320
1332647434084,52.1519
1332647494084,52.0382
1332647554084,52.1534
1332647614084,52.1314
1332647674084,52.0971
1332647734084,52.0907
1332647794084,52.2703
1332647854084,52.0504
1332647914084,52.2362
1332647974084,52.1389
1332648034096,52.1059
1332648094096,51.9971
1332648154096,52.2981
1332648214096,51.9113
1332648274096,52.2329
1332648334096,52.1925
1332648394096,52.0155
1332648454096,52.2287
1332648514096,52.0158
1332648574096,51.9727
1332648634096,52.1667
1332648694096,52.3100
1332648754096,52.1070
1332648814096,52.1549
1332648874096,52.1111
1332648934096,52.3086
1332648994096,52.1757
1332649054096,52.2432
1332649114096,52.1043
1332649174096,52.2076
1332649234096,52.0571
1332649294096,52.1307
1332649354096,52.0910
1332649414096,52.2547
1332649474096,52.2046
1332649534096,52.1104
1332649594096,52.0718
1332649654096,52.2723
1332649714096,52.1411
1332649774096,52.1680
1332649834096,52.1583
1332649894096,52.2359
1332649954096,52.2110
1332650014096,52.2234
1332650074096,52.0068
1332650134096,52.2382
1332650194096,52.1972
1332650254096,52.0914
1332650314096,52.1616
1332650374096,52.3457
1332650434096,52.2257
1332650494096,52.1292
1332650554096,52.2074
1332650614096,52.1700
1332650674096,52.1587
1332650734096,51.9727
1332650794096,52.1443
1332650854096,52.1345
1332650914096,52.2343
1332650974096,52.1346
1332651034096,52.0333
1332651094096,52.2613
1332651154096,52.2412
1332651214096,52.1907
1332651274096,52.1483
1332651334096,52.0113
1332651394096,52.2373
1332651454096,52.3078
1332651514096,52.0762
1332651574096,52.1648
1332651634109,52.0265
1332651694109,52.2145
1332651754109,52.3074
1332651814109,52.1066
1332651874109,52.1105
1332651934109,52.2540
1332651994109,52.2301
1332652054109,52.2680
1332652114109,52.2818
1332652174109,51.9856
1332652234109,52.1908
1332652294109,52.2394
1332652354109,52.2015
1332652414109,52.1645
1332652474109,52.1848
1332652534109,52.1868
1332652594109,52.1027
1332652654109,52.1795
1332652714109,52.2180
1332652774109,52.1395
1332652834109,52.2942
1332652894109,52.1713
1332652954109,52.1650
1332653014109,52.1357
1332653074109,52.1156
1332653134109,52.1893
1332653194109,52.2454
1332653254109,52.3660
1332653314109,52.3159
1332653374109,52.2795
1332653434109,52.1888
1332653494109,52.0967
1332653554109,52.3168
1332653614109,52.3003
1332653674109,52.1062
1332653734109,52.2051
1332653794109,52.2469
1332653854109,52.3358
1332653914109,52.1124
1332653974109,52.2947
1332654034109,52.1038
1332654094109,52.3601
1332654154109,52.3464
1332654214109,52.2495
1332654274109,52.3182
1332654334109,52.3603
1332654394109,52.3644
1332654454109,52.2084
1332654514109,52.3132
1332654574109,52.2493
1332654634109,52.2053
1332654694109,52.3847
1332654754109,52.2369
1332654814109,52.2375
1332654874109,52.2959
1332654934109,52.1874
1332654994109,52.2697
1332655054109,52.2025
1332655114109,52.4051
1332655174109,52.2942
1332655234121,52.2334
1332655294121,52.3061
1332655354121,52.3757
1332655414121,52.2117
1332655474121,52.3435
1332655534121,52.3564
1332655594121,52.2731
1332655654121,52.2758
1332655714121,52.4338
1332655774121,52.4602
1332655834121,52.2746
1332655894121,52.3748
1332655954121,52.3124
1332656014121,52.4475
1332656074121,52.3888
1332656134121,52.3144
1332656194121,52.1655
1332656254121,51.9718
1332668494155,53.0816
1332668554155,53.2173
1332668614155,53.2621
1332668674155,53.2907
1332668734155,53.3428
1332668794155,53.3796
1332668854155,53.3967
1332668914155,53.3667
1332668974155,53.3117
1332669034155,53.4464
1332669094155,53.2347
1332669154155,53.3056
1332669214155,53.1619
1332669274155,53.3023
1332669334155,53.0951
1332669394155,53.3308
1332669454155,53.2162
1332669514155,53.2735
1332669574155,53.2261
1332669634167,53.1658
1332669694167,53.3333
1332669754167,52.9693
1332669814167,53.2456
1332669874167,53.1660
1332669934167,53.2336
1332669994167,53.1899
1332670054167,53.1732
1332670114167,53.0651
1332670174167,53.1124
1332670234167,53.1170
1332670294167,53.0082
1332670354167,52.9328
1332670414167,53.1678
1332670474167,53.0608
1332670534167,53.0151
1332670594167,53.0440
1332670654167,53.0846
1332670714167,53.0555
1332670774167,52.8854
1332670834167,52.9309
1332670894167,52.9022
1332670954167,52.8885
1332671014167,53.0325
1332671074167,53.0211
1332671134167,53.0396
1332671194167,52.9707
1332671254167,52.9192
1332671314167,52.9665
1332671374167,52.8100
1332671434167,52.7520
1332671494167,52.9103
1332671554167,52.9480
1332671614167,52.8221
1332671674167,52.8809
1332671734167,52.9598
1332671794167,52.8784
1332671854167,52.6564
1332671914167,52.8738
1332671974167,52.7522
1332672034167,52.8805
1332672094167,52.9098
1332672154167,52.9168
1332672214167,52.8826
1332672274167,52.6941
1332672334167,52.7719
1332672394167,52.6977
1332672454167,52.8770
1332672514167,52.7893
1332672574167,52.7814
1332672634167,52.6441
1332672694167,52.6738
1332672754167,52.8290
1332672814167,52.7317
1332672874167,52.7832
1332672934167,52.7073
1332672994167,52.7500
1332673054167,52.5773
1332673114167,52.6316
1332673174167,52.8944
1332673234180,52.6192
1332673294180,52.6045
1332673354180,52.7294
1332673414180,52.6901
1332673474180,52.8046
1332673534180,52.8766
1332673594180,52.8171
1332673654180,52.6153
1332673714180,52.6139
1332673774180,52.5688
1332673834179,52.7009
1332673894179,52.6056
1332673954179,52.6892
1332674014179,52.6876
1332674074179,52.7719
1332674134180,52.8648
1332674194180,52.6946
1332674254180,52.7489
1332674314180,52.7838
1332674374180,52.7160
1332674434180,52.5912
1332674494180,52.6891
1332674554180,52.4961
1332674614180,52.8027
1332674674180,52.5559
1332674734180,52.8003
1332674794180,52.5716
1332674854180,52.7478
1332674914180,52.6748
1332674974180,52.6009
1332675034180,52.6910
1332675094180,52.8788
1332675154179,52.7517
1332675214179,52.6514
1332675274179,52.7268
1332675334179,52.4847
1332675394179,52.6843
1332675454179,52.6037
1332675514180,52.7070
1332675574180,52.7543
1332675634180,52.6590
1332675694180,52.7592
1332675754180,52.8522
1332675814180,52.6510
1332675874180,52.6183
1332675934180,52.6351
1332675994180,52.7692
1332676054180,52.6912
1332676114180,52.6629
1332676174180,52.6003
1332676234180,52.6490
1332676294180,52.7755
1332676354180,52.6657
1332676414180,52.6581
1332676474180,52.8174
1332676534179,52.7314
1332676594179,52.7061
1332676654179,52.7686
1332676714179,52.6988
1332676774179,52.6470
1332676834192,52.7348
1332676894192,52.6160
1332676954192,52.8218
1332677014192,52.7858
1332677074192,52.8718
1332677134192,52.8864
1332677194192,52.8053
1332677254192,52.7660
1332677314192,52.7724
1332677374192,52.7869
1332677434192,52.8283
1332677494192,52.9077
1332677554192,52.8877
1332677614192,53.0145
1332677674192,52.8462
1332677734192,52.7433
1332677794192,52.7097
1332677854192,52.8937
1332677914192,52.7505
1332677974192,52.8803
1332678034192,52.7872
1332678094192,52.7793
1332678154192,52.9479
1332678214192,52.8572
1332678274192,52.8152
1332678334192,52.9860
1332678394192,52.9248
1332678454192,53.0776
1332678514192,53.2025
1332678574192,53.0832
1332678634192,53.1450
1332678694192,53.0016
1332678754192,53.3085
1332678814192,53.0584
1332678874192,53.0502
1332678934192,52.8231
1332678994192,53.0685
1332679054192,52.9756
1332679114192,52.9278
1332679174192,52.9767
1332679234192,52.8738
1332679294192,52.8957
1332679354192,52.7886
1332679414192,52.9709
1332679474192,52.9585
1332679534192,53.0902
1332679594192,53.0167
1332679654192,53.0559
1332679714192,53.0314
1332679774192,53.0447
1332679834192,52.9896
1332679894192,53.0072
1332679954192,52.9867
1332680014192,53.0108
1332680074192,52.9858
1332680134192,52.9640
1332680194192,52.8524
1332680254192,52.9535
1332680314192,53.0980
1332680374192,52.8933
1332680434204,52.9237
1332680494204,52.8307
1332680554204,52.8481
1332680614204,52.8096
1332680674204,52.7476
1332680734204,52.8410
1332680794204,52.8545
1332680854204,52.6538
1332680914204,52.8058
1332680974204,52.7381
1332681034204,52.7067
1332681094204,52.9432
1332681154204,52.7783
1332681214204,52.6619
1332681274204,52.7256
1332681334204,52.7407
1332681394204,52.6589
1332681454204,52.7013
1332681514204,52.7535
1332681574204,52.6063
1332681634204,52.6331
1332681694204,52.6183
1332681754204,52.4748
1332681814204,52.4712
1332682954204,52.7007
1332683014204,52.6079
1332683074204,52.7513
1332683134204,52.6977
1332683194204,52.7351
1332683254204,52.7351
1332683314204,52.7408
1332683374204,52.6611
1332683434204,52.6338
1332683494204,52.6865
1332683554204,52.7047
1332683614204,52.7596
1332683674204,52.8001
1332683734204,52.6740
1332683794204,52.7036
1332683854204,52.4695
1332683914204,52.6717
1332683974204,52.5410
1332684034216,52.4932
1332684094216,52.6359
1332684154216,52.5775
1332684214216,52.7138
1332684274216,52.5860
1332684334216,52.5353
1332684394216,52.8359
1332684454216,52.7447
1332684514216,52.5308
1332684574216,52.8097
1332684634216,52.7506
1332684694216,52.5637
1332684754216,52.7623
1332684814216,52.5255
1332684874216,52.7374
1332684934216,52.5444
1332684994216,52.6588
1332685054216,52.7007
1332685114216,52.7081
1332685174216,52.6981
1332685234216,52.6195
1332685294216,52.7094
1332685354216,52.6211
1332685414216,52.7608
1332685474216,52.5284
1332685534216,52.7118
1332685594216,52.5565
1332685654216,52.6593
1332685714216,52.7254
1332685774216,52.6698
1332685834216,52.5150
1332685894216,52.6409
1332685954216,52.6599
1332686014216,52.7943
1332686074216,52.6030
1332686134216,52.7480
1332686194216,52.6106
1332686254216,52.4759
1332686314216,52.8675
1332686374216,52.6704
1332686434216,52.5794
1332686494216,52.8228
1332686554216,52.5351
1332686614216,52.5422
1332686674216,52.6220
1332686734216,52.7871
1332686794216,52.7757
1332686854216,52.5322
1332686914216,52.6635
1332686974216,52.5680
1332687034216,52.7325
1332687094216,52.5876
1332687154216,52.5442
1332687214216,52.5831
1332687274216,52.6873
1332687334216,52.5725
1332687394216,52.6642
1332687454216,52.6362
1332687514216,52.5426
1332687574216,52.5623
1332687634229,52.6377
1332687694229,52.5159
1332687754229,52.6513
1332687814229,52.4953
1332687874229,52.6624
1332687934229,52.3971
1332687994229,52.6479
1332688054229,52.6145
1332688114229,52.5797
1332688174229,52.5492
1332688234229,52.5147
1332688294229,52.7025
1332688354229,52.5181
1332688414229,52.4673
1332688474229,52.6298
1332688534229,52.4503
1332688594229,52.6314
1332688654229,52.5873
1332688714229,52.6263
1332688774229,52.5422
1332688834229,52.5532
1332688894229,52.6556
1332688954229,52.6326
1332689014229,52.5125
1332689074229,52.5286
1332689134229,52.5882
1332689194229,52.6556
1332689254229,52.4314
1332689314229,52.8123
1332689374229,52.7064
1332689434229,52.6939
1332689494229,52.5468
1332689554229,52.6415
1332689614229,52.5738
1332689674229,52.6636
1332689734229,52.5979
1332689794229,52.4470
1332689854229,52.8229
1332689914229,52.5560
1332689974229,52.5360
1332690034229,52.4931
1332690094229,52.4974
1332690154229,52.5557
1332690214229,52.6441
1332690274229,52.5093
1332690334229,52.6855
1332690394229,52.4147
1332690454229,52.6579
1332690514229,52.4962
1332690574229,52.6903
1332690634229,52.5933
1332690694229,52.5299
1332690754229,52.5728
1332690814229,52.6448
1332690874229,52.5723
1332690934229,52.7086
1332690994229,52.5548
1332691054229,52.8902
1332691114229,52.6354
1332691174229,52.5662
1332691234241,52.6129
1332691294241,52.5892
1332691354241,52.6759
1332691414241,52.5580
1332691474241,52.5435
1332691534241,52.5641
1332691594241,52.6005
1332691654241,52.6403
1332691714241,52.6010
1332691774241,52.6263
1332691834241,52.5560
1332691894241,52.6921
1332691954241,52.5481
1332692014241,52.6455
1332692074241,52.7108
1332692134241,52.7147
1332692194241,52.7845
1332692254241,52.6026
1332692314241,52.5587
1332692374241,52.4083
1332692434241,52.6898
1332692494241,52.6505
1332692554241,52.5665
1332692614241,52.6929
1332692674241,52.5202
1332692734241,52.5155
1332692794241,52.5202
1332692854241,52.5759
1332692914241,52.3915
1332692974241,52.6167
1332693034241,52.6141
1332693094241,52.4834
1332693154241,52.4696
1332693214241,52.5256
1332693274241,52.5422
1332693334241,52.4237
1332693394241,52.5002
1332693454241,52.4124
1332693514241,52.5337
1332693574241,52.5904
1332693634241,52.6694
1332693694241,52.5247
1332693754241,52.5227
1332693814241,52.3845
1332693874241,52.5927
1332693934241,52.5451
1332693994241,52.5329
1332694054241,52.4529
1332694114241,52.3211
1332694174241,52.4502
1332694234241,52.4425
1332694294241,52.3793
1332694354241,52.6818
1332694414241,52.5107
1332694474241,52.4023
1332694534241,52.5275
1332694594241,52.3627
1332694654241,52.6215
1332694714241,52.3909
1332694774241,52.4255
1332694834253,52.5283
1332694894253,52.3742
1332694954253,53.0040
1332695014253,52.4001
1332695074253,52.3720
1332695134253,52.6477
1332695194253,52.4775
1332695254253,52.4944
1332695314253,52.5688
1332695374253,52.4599
1332695434253,52.4859
1332695494253,52.4359
1332695554253,52.4931
1332695614253,52.5145
1332695674253,52.7047
1332695734253,52.5024
1332695794253,52.4311
1332695854253,52.6794
1332695914253,52.5626
1332695974253,52.6419
1332696034253,52.5719
1332696094253,52.5220
1332696154253,52.6066
1332696214253,52.5797
1332696274253,52.4362
1332696334253,52.5363
1332696394253,52.5189
1332696454253,52.6824
1332696514253,52.6201
1332696574253,52.4326
1332696634253,52.3736
1332696694253,52.5039
1332696754253,52.6287
1332696814253,52.5121
1332696874253,52.5344
1332696934253,52.4859
1332696994253,52.4644
1332697054253,52.4935
1332697114253,52.5420
1332697174253,52.5200
1332697234253,52.7235
1332697294253,52.5779
1332697354253,52.6517
1332697414253,52.5506
1332697474253,52.5220
1332697534253,52.7156
1332697594253,52.6210
1332697654253,52.6034
1332697714253,52.6647
1332697774253,52.6531
1332697834253,52.5415
1332697894253,52.4843
1332697954253,52.4502
1332698014253,52.4951
1332698074253,52.4824
1332698134253,52.4829
1332698194253,52.5346
1332698254253,52.6115
1332698314253,52.6823
1332698374253,52.4664
1332698434265,52.4483
1332698494265,52.4313
1332698554265,52.4795
1332698614265,52.4636
1332698674265,52.3721
1332698734265,52.5434
1332698794265,52.4410
1332698854265,52.3993
1332698914265,52.4358
1332698974265,52.4769
1332699034265,52.4911
1332699094265,52.5109
1332699154265,52.3904
1332699214265,52.5579
1332699274265,52.3696
1332699334265,52.3656
1332699394265,52.5877
1332699454265,52.5540
1332699514265,52.5438
1332699574265,52.4653
1332699634265,52.4902
1332699694265,52.6823
1332699754265,52.6733
1332699814265,52.4189
1332699874265,52.8075
1332699934265,52.5741
1332699994265,52.5545
1332700054265,52.5176
1332700114265,52.4807
1332700174265,52.6191
1332700234265,52.5293
1332700294265,52.5978
1332700354265,52.6669
1332700414265,52.6847
1332700474265,52.6650
1332700534265,52.5918
1332700594265,52.6776
1332700654265,52.6937
1332700714265,52.7153
1332700774265,52.5755
1332700834265,52.6192
1332700894265,52.5667
1332700954265,52.5656
1332701014265,52.5911
1332701074265,52.6971
1332701134265,52.5482
1332701194265,52.6661
1332701254265,52.7239
1332701314265,52.5852
1332701374265,52.7533
1332701434265,52.7394
1332701494265,52.5905
1332701554265,52.7016
1332701614265,52.7135
1332701674265,52.7284
1332701734265,52.6882
1332701794265,52.6889
1332701854265,52.8375
1332701914265,52.7131
1332701974265,52.7356
1332702034277,52.5997
1332702094277,52.7368
1332702154277,52.7822
1332702214277,52.7742
1332702274277,52.6168
1332702334277,52.7652
1332702394277,52.7455
1332702454277,52.6588
1332702514277,52.6791
1332702574277,52.7142
1332702634277,52.7291
1332702694277,52.7699
1332702754277,52.7388
1332702814277,52.7808
1332702874277,52.6453
1332702934277,52.8011
1332702994277,52.7435
1332703054277,52.7780
1332703114277,52.7570
1332703174277,52.8614
1332703234277,52.8916
1332703294277,52.7950
1332703354277,52.8316
1332703414277,52.8168
1332703474277,52.8992
1332703534277,52.8903
1332703594277,52.7046
1332703654277,52.8213
1332703714277,52.8794
1332703774277,52.7290
1332703834277,52.8310
1332703894277,52.7532
1332703954277,52.7117
1332704014277,52.8240
1332704074277,52.7507
1332704134277,52.8446
1332704194277,52.8967
1332704254277,52.6492
1332704314277,52.6000
1332704374277,52.7256
1332704434277,52.8662
1332704494277,52.8411
1332704554277,52.7308
1332704614277,52.7813
1332704674277,52.6562
1332704734277,52.7722
1332704794277,52.9125
1332704854277,52.6866
1332704914277,52.7258
1332704974277,52.6696
1332705034277,52.8096
1332705094277,52.8973
1332705154277,52.7647
1332705214277,52.7413
1332705274277,52.7372
1332705334277,52.8014
1332705394277,52.7462
1332705454277,52.7660
1332705514277,52.6647
1332705574277,52.6899
1332705634289,52.7665
1332705694289,52.6593
1332705754289,52.7137
1332705814289,52.7797
1332705874289,52.6499
1332705934289,52.9037
1332705994289,52.8080
1332706054289,52.7824
1332706114289,52.7094
1332706174289,52.6132
1332706234289,52.7039
1332706294289,52.8245
1332706354289,52.9595
1332706414289,52.8692
1332706474289,52.7221
1332706534289,52.8879
1332706594289,52.9743
1332706654289,52.7876
1332706714289,52.8699
1332706774289,53.0265
1332706834289,52.7168
1332706894289,52.6720
1332706954289,52.8661
1332707014289,52.7958
1332707074289,52.9226
1332707134289,53.0038
1332707194289,52.7571
1332707254289,52.8840
1332707314289,52.8335
1332707374289,52.9498
1332707434289,52.6860
1332707494289,52.8442
1332707554289,52.7178
1332707614289,52.6905
1332707674289,52.7989
1332707734289,52.6917
1332707794289,52.6702
1332707854289,52.6857
1332707914289,52.7021
1332707974289,52.6956
1332708034289,52.7944
1332708094289,52.7634
1332708154289,52.7322
1332708214289,52.9874
1332708274289,52.9168
1332708334289,53.0253
1332708394289,52.8743
1332708454289,52.8077
1332708514289,52.5881
1332708574289,52.6744
1332708634289,52.7239
1332708694289,52.7590
1332708754289,52.8007
1332708814289,52.7340
1332708874289,52.7349
1332708934289,52.8378
1332708994289,52.8061
1332709054289,52.7828
1332709114289,52.8259
1332709174289,52.6876
1332709234301,52.5498
1332709294301,52.6699
1332709354301,52.6206
1332709414301,52.5703
1332709474301,52.6914
1332709534301,52.7588
1332709594301,52.5616
1332709654301,52.6606
1332709714301,52.6959
1332709774301,52.6603
1332709834301,52.8151
1332709894301,52.7181
1332709954301,52.8109
1332710014301,52.6772
1332710074301,52.6611
1332710134301,52.6055
1332710194301,52.9264
1332710254301,52.6956
1332710314301,52.7334
1332710374301,52.6729
1332710434301,52.6329
1332710494301,52.5148
1332710554301,52.7664
1332710614301,52.6959
1332710674301,52.6181
1332710734301,52.6667
1332710794301,52.5369
1332710854301,52.7131
1332710914301,52.6025
1332710974301,52.6816
1332711034301,52.6774
1332711094301,52.6483
1332711154301,52.8353
1332711214301,52.6210
1332711274301,52.5986
1332711334301,52.7015
1332711394301,52.7587
1332711454301,52.7116
1332711514301,52.6592
1332711574301,52.5517
1332711634301,52.7311
1332711694301,52.5478
1332711754301,52.4687
1332711814301,52.6385
1332711874301,52.5438
1332711934301,52.4695
1332711994301,52.5292
1332712054301,52.5371
1332712114301,52.5711
1332712174301,52.5816
1332712234301,52.5570